Weather History for KAUW - October, 2012

Change the Weather History Date:

Sunday, October 21, 2012

  Actual Average Record
Temperature  
Mean Temperature 46 °F 44 °F  
Max Temperature 61 °F 53 °F 80 °F (1953)
Min Temperature 30 °F 35 °F 18 °F (1960)
Degree Days  
Heating Degree Days 19 21  
Month to date heating degree days 381 361  
Since 1 July heating degree days 651 654  
Cooling Degree Days 0 0  
Month to date cooling degree days 0 0  
Year to date cooling degree days 725 405  
Moisture  
Dew Point 38 °F    
Average Humidity 76    
Maximum Humidity 100    
Minimum Humidity 51    
Precipitation  
Precipitation 0.00 in 0.08 in 1.90 in (1943)
Month to date precipitation 3.14 2.16  
Year to date precipitation 24.23 28.27  
Snow  
Snow 0.00 in 0.00 in 7.80 in (2002)
Month to date snowfall T 0.7  
Since 1 July snowfall T 0.7  
Snow Depth 0.00 in    
Sea Level Pressure  
Sea Level Pressure 29.94 in    
Wind  
Wind Speed 5 mph (ESE)    
Max Wind Speed 16 mph    
Max Gust Speed 18 mph    
Visibility 6 miles    
Events      
T = Trace of Precipitation, MM = Missing Value Source: NWS Daily Summary

Daily Weather History Graph

Daily Weather History Graph

Search for Another Location

Airport or City:

Trip Planner

Search our weather history database for the weather conditions in past years. The results will help you decide how hot, cold, wet, or windy it might be!

Date:

Astronomy

Oct. 21, 2012 Rise Set
Actual Time 7:22 AM CDT 6:02 PM CDT
Civil Twilight 6:52 AM CDT 6:32 PM CDT
Nautical Twilight 6:18 AM CDT 7:06 PM CDT
Astronomical Twilight 5:44 AM CDT 7:40 PM CDT
Moon 1:48 PM CDT (10/21) 11:53 PM CDT (10/21)
Length of Visible Light 11h 39m
Length of Day
10h 40m
Waxing Crescent, 45% of the Moon is Illuminated
Oct 21
Waxing Crescent
Oct 21
First Quarter
Oct 29
Full
Nov 6
Last Quarter
Nov 13
New

Hourly Weather History & Observations

Time (CDT) Temp. Windchill Dew Point Humidity Pressure Visibility Wind Dir Wind Speed Gust Speed Precip Events Conditions
12:44 AM 35.6 °F 32.8 °F 35.6 °F 100% 29.87 in 1.2 mi East 3.5 mph - N/A   Partly Cloudy
12:48 AM 35.6 °F 32.8 °F 35.6 °F 100% 29.87 in 3.0 mi East 3.5 mph - N/A   Clear
12:54 AM 35.1 °F 32.2 °F 35.1 °F 100% 29.91 in 4.0 mi East 3.5 mph - N/A   Clear
1:20 AM 35.6 °F 32.8 °F 35.6 °F 100% 29.88 in 2.5 mi East 3.5 mph - N/A   Clear
1:27 AM 35.6 °F 31.7 °F 35.6 °F 100% 29.88 in 3.0 mi East 4.6 mph - N/A   Clear
1:39 AM 35.6 °F 32.8 °F 35.6 °F 100% 29.88 in 1.8 mi East 3.5 mph - N/A   Clear
1:49 AM 35.6 °F 32.8 °F 35.6 °F 100% 29.89 in 0.8 mi ESE 3.5 mph - N/A   Clear
1:54 AM 35.1 °F 32.2 °F 35.1 °F 100% 29.93 in 1.8 mi ESE 3.5 mph - N/A   Clear
2:12 AM 35.6 °F 32.8 °F 33.8 °F 93% 29.89 in 3.0 mi East 3.5 mph - N/A   Clear
2:54 AM 34.0 °F - 34.0 °F 100% 29.94 in 3.0 mi Calm Calm - N/A   Clear
3:04 AM 33.8 °F - 33.8 °F 100% 29.91 in 2.5 mi Calm Calm - N/A   Clear
3:27 AM 33.8 °F 30.8 °F 32.0 °F 93% 29.90 in 4.0 mi East 3.5 mph - N/A   Clear
3:54 AM 33.1 °F 30.0 °F 32.0 °F 96% 29.94 in 4.0 mi East 3.5 mph - N/A   Clear
4:54 AM 32.0 °F - 32.0 °F 100% 29.96 in 4.0 mi Calm Calm - N/A   Clear
5:54 AM 32.0 °F 28.7 °F 30.9 °F 96% 29.97 in 5.0 mi East 3.5 mph - N/A   Clear
6:54 AM 32.0 °F 28.7 °F 30.9 °F 96% 29.98 in 5.0 mi East 3.5 mph - N/A   Clear
7:54 AM 32.0 °F - 30.9 °F 96% 29.99 in 4.0 mi Calm Calm - N/A   Clear
8:54 AM 37.9 °F 34.4 °F 37.0 °F 97% 29.99 in 7.0 mi ESE 4.6 mph - N/A   Clear
9:54 AM 46.0 °F 43.9 °F 39.9 °F 79% 29.99 in 10.0 mi SE 4.6 mph - N/A   Clear
10:54 AM 50.0 °F - 42.1 °F 74% 29.99 in 10.0 mi SSE 4.6 mph - N/A   Clear
11:54 AM 55.0 °F - 42.1 °F 62% 29.99 in 10.0 mi SSE 6.9 mph - N/A   Clear
12:54 PM 59.0 °F - 42.1 °F 53% 29.96 in 10.0 mi SE 9.2 mph - N/A   Clear
1:54 PM 59.0 °F - 42.1 °F 53% 29.96 in 10.0 mi SE 10.4 mph - N/A   Clear
2:54 PM 61.0 °F - 42.1 °F 50% 29.95 in 10.0 mi SSE 9.2 mph - N/A   Clear
3:54 PM 60.1 °F - 42.1 °F 51% 29.94 in 10.0 mi SE 10.4 mph - N/A   Clear
4:54 PM 60.1 °F - 42.1 °F 51% 29.95 in 10.0 mi SE 11.5 mph - N/A   Clear
5:54 PM 55.9 °F - 41.0 °F 57% 29.94 in 10.0 mi SE 6.9 mph - N/A   Clear
6:54 PM 55.0 °F - 42.1 °F 62% 29.94 in 10.0 mi ESE 8.1 mph - N/A   Clear
7:54 PM 54.0 °F - 43.0 °F 66% 29.94 in 10.0 mi ESE 5.8 mph - N/A   Clear
8:54 PM 51.1 °F - 42.1 °F 71% 29.95 in 10.0 mi East 4.6 mph - N/A   Clear
9:54 PM 51.1 °F - 43.0 °F 74% 29.97 in 10.0 mi East 5.8 mph - N/A   Clear
10:54 PM 50.0 °F - 43.0 °F 77% 29.98 in 10.0 mi East 5.8 mph - N/A   Clear
11:54 PM 48.9 °F - 43.0 °F 80% 29.98 in 10.0 mi ESE 4.6 mph - N/A   Clear